Notices

What's New in latest Release from April 7th, 2021:

- Updated Glossary, including Speed of Maximum Gust, and Total Hourly Precipitation

- Updated national and regional climate services offices contacts and prices information

- Addition of station inventory lists for 1981-2010, 1971-2000, and 1961-1990 Normals.

If you haven't already, please take our survey and provide feedback about our website: https://eccc.sondage-survey.ca/f/LanguageSelection.aspx?s=442ca660-fcf1-47c0-95a9-59707d6fd709

Hourly Data Report for April 28, 2021

CLYDE RIVER A
NUNAVUT
Current Station Operator: NAVCAN

70°29'09.000" N
68°31'01.000" W
26.50 m
2400804
71090
YCY

Download Data

Hourly Data (April 2021)
Hourly Data Report for April 28, 2021
TIME
LST
Temp Definition
°C
Dew Point Definition
°C
Rel Hum Definition
%
Precip. Amount Definition
mm

Wind Dir Definition
10's deg

Wind Spd Definition
km/h
Visibility Definition
km
Stn Press Definition
kPa
Hmdx Definition


Wind Chill Definition


Weather Definition


00:00 -12.6 -15.3 81 0.0 27 11 16.1 102.60   -19 LegendNANA
01:00 -12.0 -15.4 76 0.0 LegendMM 5 16.1 102.66   -15 LegendNANA
02:00 -13.3 -16.9 75 0.0 34 4 16.1 102.71   -16 LegendNANA
03:00 -12.8 -17.0 71 0.0 25 9 16.1 102.75   -18 LegendNANA
04:00 -15.4 -18.1 80 0.0 34 9 16.1 102.82   -21 LegendNANA
05:00 -14.8 -18.0 77 0.0   0 16.1 102.85     LegendNANA
06:00 -12.4 -15.5 78 0.0 32 11 16.1 102.87   -18 LegendNANA
07:00 -9.1 -12.8 75 0.0 27 8 16.1 102.93   -13 LegendNANA
08:00 -8.8 -11.8 79 0.0 29 5 16.1 102.96   -12 LegendNANA
09:00 -8.0 -10.9 80 0.0   0 16.1 102.98     LegendNANA
10:00 -7.4 -9.5 85 0.0 LegendMM 4 16.1 103.00   -9 LegendNANA
11:00 -6.6 -9.0 83 0.0 9 5 16.1 103.01   -9 LegendNANA
12:00 -5.2 -8.4 78 0.0 10 13 16.1 102.97   -10 LegendNANA
13:00 -5.3 -9.2 74 0.0 14 17 16.1 102.98   -11 LegendNANA
14:00 -5.3 -8.1 81 0.0   0 16.1 102.97     LegendNANA
15:00 -5.7 -8.0 84 0.0 14 9 16.1 102.95   -10 LegendNANA
16:00 -6.0 -8.6 82 0.0 13 17 16.1 102.94   -12 LegendNANA
17:00 -7.1 -9.3 85 0.0 11 18 16.1 102.93   -14 LegendNANA
18:00 -5.8 -6.9 92 0.0 14 39 0.2 102.91   -15 Heavy Snow
19:00 -5.2 -5.7 96 0.0 15 22 16.1 102.93   -12 Snow
20:00 -5.9 -6.0 99 0.0 16 15 16.1 102.93   -12 LegendNANA
21:00 -5.1 -5.2 99 0.0 12 15 16.1 102.90   -11 LegendNANA
22:00 -4.9 -5.3 97 0.0 11 24 16.1 102.83   -12 LegendNANA
23:00 -4.7 -5.0 98 0.0 12 11 16.1 102.79   -9 LegendNANA

Notes on Data Quality.

Legend

  • E = Estimated
  • M = Missing
  • NA = Not Available*
  • [empty] = Indicates an unobserved value
Date modified: